Cleveland Burke, OH

3:22 AM EST on November 22, 2017 (GMT -0500)
Burke Lakefront

Weather History for KBKL - October, 2012

Change the Weather History Date:

Tuesday, October 9, 2012

  Actual Average Record
Temperature  
Mean Temperature 49 °F -  
Max Temperature 59 °F 63 °F 80 °F (1997)
Min Temperature 39 °F 49 °F 39 °F (2012)
Degree Days  
Heating Degree Days 16    
Moisture  
Dew Point 36 °F    
Average Humidity 63    
Maximum Humidity 86    
Minimum Humidity 41    
Precipitation  
Precipitation 0.00 in - - ()
Sea Level Pressure  
Sea Level Pressure 30.09 in    
Wind  
Wind Speed 10 mph (South)    
Max Wind Speed 13 mph    
Max Gust Speed 22 mph    
Visibility 10 miles    
Events      
Averages and records for this station are not official NWS values.
T = Trace of Precipitation, MM = Missing Value Source: NWS Daily Summary

Daily Weather History Graph

Daily Weather History Graph

Search for Another Location

Airport or City:

Trip Planner

Search our weather history database for the weather conditions in past years. The results will help you decide how hot, cold, wet, or windy it might be!

Date:

Astronomy

Oct. 09, 2012 Rise Set
Actual Time 7:32 AM EDT 6:54 PM EDT
Civil Twilight 7:04 AM EDT 7:22 PM EDT
Nautical Twilight 6:32 AM EDT 7:54 PM EDT
Astronomical Twilight 6:00 AM EDT 8:26 PM EDT
Moon 1:03 AM EDT (10/9) 3:24 PM EDT (10/9)
Length of Visible Light 12h 17m
Length of Day
11h 21m
Last Quarter, 37% of the Moon is Illuminated
Oct 9
Last Quarter
Oct 15
New
Oct 21
First Quarter
Oct 29
Full
Nov 6
Last Quarter

Hourly Weather History & Observations

Time (EDT) Temp. Windchill Dew Point Humidity Pressure Visibility Wind Dir Wind Speed Gust Speed Precip Events Conditions
12:53 AM 42.1 °F 36.6 °F 35.1 °F 76% 30.19 in 10.0 mi SSE 9.2 mph - N/A   Clear
1:53 AM 42.1 °F 36.6 °F 36.0 °F 79% 30.17 in 10.0 mi SSE 9.2 mph - N/A   Clear
2:53 AM 41.0 °F 35.8 °F 36.0 °F 82% 30.18 in 10.0 mi SSE 8.1 mph - N/A   Clear
4:53 AM 39.9 °F 33.9 °F 35.1 °F 83% 30.17 in 10.0 mi SSE 9.2 mph - N/A   Clear
5:53 AM 39.9 °F 33.4 °F 36.0 °F 86% 30.16 in 10.0 mi SSE 10.4 mph - N/A   Clear
6:53 AM 39.0 °F 32.8 °F 35.1 °F 86% 30.17 in 10.0 mi SSE 9.2 mph - N/A   Clear
7:53 AM 39.9 °F 33.4 °F 35.1 °F 83% 30.17 in 8.0 mi SSE 10.4 mph - N/A   Clear
8:53 AM 42.1 °F 36.1 °F 36.0 °F 79% 30.18 in 10.0 mi South 10.4 mph - N/A   Clear
9:53 AM 46.0 °F 40.6 °F 37.0 °F 71% 30.18 in 10.0 mi SSE 11.5 mph - N/A   Clear
10:53 AM 50.0 °F - 37.9 °F 63% 30.16 in 10.0 mi SSE 12.7 mph - N/A   Clear
11:53 AM 53.1 °F - 37.9 °F 57% 30.14 in 10.0 mi South 11.5 mph 18.4 mph N/A   Clear
12:53 PM 55.0 °F - 37.9 °F 53% 30.11 in 10.0 mi SSW 9.2 mph 17.3 mph N/A   Clear
1:53 PM 57.0 °F - 37.0 °F 47% 30.06 in 10.0 mi South 10.4 mph - N/A   Clear
2:53 PM 57.9 °F - 37.0 °F 46% 30.05 in 10.0 mi SW 12.7 mph 21.9 mph N/A   Clear
3:53 PM 57.9 °F - 36.0 °F 44% 30.03 in 10.0 mi South 10.4 mph 17.3 mph N/A   Clear
4:53 PM 59.0 °F - 35.1 °F 41% 30.01 in 10.0 mi South 11.5 mph - N/A   Clear
5:53 PM 57.9 °F - 36.0 °F 44% 30.00 in 10.0 mi South 9.2 mph - N/A   Clear
6:53 PM 55.0 °F - 36.0 °F 49% 29.99 in 10.0 mi SSE 10.4 mph - N/A   Clear
7:53 PM 54.0 °F - 36.0 °F 51% 29.98 in 10.0 mi South 8.1 mph - N/A   Clear
8:53 PM 52.0 °F - 36.0 °F 54% 29.99 in 10.0 mi South 8.1 mph - N/A   Clear
9:53 PM 51.1 °F - 36.0 °F 56% 29.98 in 10.0 mi South 6.9 mph - N/A   Clear
10:53 PM 51.1 °F - 37.0 °F 59% 29.97 in 10.0 mi South 11.5 mph - N/A   Clear
11:53 PM 51.1 °F - 35.1 °F 54% 29.94 in 10.0 mi South 9.2 mph - N/A   Clear